Satellite-Ground Cal/Val Region Overpasses Predictions

Prediction of Satellite NPP Overpassing Cal/Val Region: PacNW

Region Location: (Latitude: 10.00, Longitude: 139.50) to (Latitude: 22.70, Longitude: 165.60).

Table of predicted overpasses for the next 14.0 days since TLE Epoch: 6/3/2023
Interval Starting Time Starting Location Ending Time Ending Location
1 06/03/2023 03:12:40 ( 10.00, 152.05) 06/03/2023 03:16:16 ( 22.68, 149.04)
2 06/03/2023 15:44:33 ( 22.69, 149.27) 06/03/2023 15:48:09 ( 10.01, 146.26)
3 06/04/2023 02:53:38 ( 10.02, 156.81) 06/04/2023 02:57:13 ( 22.64, 153.81)
4 06/04/2023 15:25:31 ( 22.67, 154.03) 06/04/2023 15:29:06 ( 10.05, 151.03)
5 06/05/2023 02:34:36 ( 10.04, 161.56) 06/05/2023 02:38:11 ( 22.66, 158.57)
6 06/05/2023 15:06:28 ( 22.65, 158.78) 06/05/2023 15:10:03 ( 10.03, 155.78)
7 06/06/2023 02:16:27 ( 13.23, 165.59) 06/06/2023 02:19:08 ( 22.68, 163.32)
8 06/06/2023 03:57:02 ( 10.01, 140.95) 06/06/2023 03:58:48 ( 16.24, 139.51)
9 06/06/2023 14:47:25 ( 22.69, 163.55) 06/06/2023 14:51:01 ( 10.01, 160.54)
10 06/07/2023 03:38:00 ( 10.03, 145.71) 06/07/2023 03:41:35 ( 22.66, 142.71)
11 06/07/2023 14:31:36 ( 11.28, 165.59) 06/07/2023 14:31:57 ( 10.05, 165.31)
12 06/07/2023 16:09:52 ( 22.66, 142.93) 06/07/2023 16:13:27 ( 10.04, 139.93)
13 06/08/2023 03:18:57 ( 10.06, 150.46) 06/08/2023 03:22:32 ( 22.68, 147.46)
14 06/08/2023 15:50:49 ( 22.70, 147.69) 06/08/2023 15:54:25 ( 10.02, 144.68)
15 06/09/2023 02:59:54 ( 10.02, 155.23) 06/09/2023 03:03:29 ( 22.64, 152.23)
16 06/09/2023 15:31:46 ( 22.67, 152.45) 06/09/2023 15:35:21 ( 10.05, 149.45)
17 06/10/2023 02:40:51 ( 10.04, 159.98) 06/10/2023 02:44:26 ( 22.67, 156.99)
18 06/10/2023 15:12:44 ( 22.65, 157.20) 06/10/2023 15:16:19 ( 10.03, 154.20)
19 06/11/2023 02:21:48 ( 10.01, 164.75) 06/11/2023 02:25:24 ( 22.69, 161.74)
20 06/11/2023 14:53:40 ( 22.68, 161.97) 06/11/2023 14:57:16 ( 10.00, 158.96)
21 06/12/2023 03:44:15 ( 10.05, 144.13) 06/12/2023 03:47:50 ( 22.67, 141.13)
22 06/12/2023 14:35:57 ( 18.02, 165.59) 06/12/2023 14:38:13 ( 10.04, 163.72)
23 06/12/2023 16:16:08 ( 22.65, 141.34) 06/12/2023 16:18:18 ( 15.02, 139.50)
24 06/13/2023 03:25:12 ( 10.02, 148.89) 06/13/2023 03:28:48 ( 22.70, 145.88)
25 06/13/2023 15:57:05 ( 22.68, 146.11) 06/13/2023 16:00:40 ( 10.06, 143.11)
26 06/14/2023 03:06:09 ( 10.05, 153.64) 06/14/2023 03:09:44 ( 22.67, 150.65)
27 06/14/2023 15:38:02 ( 22.65, 150.86) 06/14/2023 15:41:37 ( 10.03, 147.87)
28 06/15/2023 02:47:06 ( 10.02, 158.41) 06/15/2023 02:50:42 ( 22.70, 155.40)
29 06/15/2023 15:18:59 ( 22.68, 155.63) 06/15/2023 15:22:34 ( 10.06, 152.63)
30 06/16/2023 02:28:03 ( 10.05, 163.16) 06/16/2023 02:31:38 ( 22.67, 160.17)
